Watertown, NY

3:44 AM EST on November 15, 2019 (GMT -0500)
Watertown International

Weather History for KART - September, 2019

Change the Weather History Date:

Sunday, September 1, 2019

  Actual Average Record
Temperature  
Mean Temperature 62 °F 64 °F  
Max Temperature 71 °F 76 °F 89 °F (1953)
Min Temperature 53 °F 53 °F 37 °F (1967)
Degree Days  
Heating Degree Days 3 3  
Month to date heating degree days 3 3  
Since 1 July heating degree days 32 75  
Cooling Degree Days 0 2  
Month to date cooling degree days 0 2  
Year to date cooling degree days 321 326  
Growing Degree Days 12 (Base 50)    
Moisture  
Dew Point 54 °F    
Average Humidity 73    
Maximum Humidity 93    
Minimum Humidity 53    
Precipitation  
Precipitation 0.22 in 0.10 in 1.27 in (1980)
Month to date precipitation 0.22 0.10  
Year to date precipitation 28.31 21.90  
Sea Level Pressure  
Sea Level Pressure 30.24 in    
Wind  
Wind Speed 5 mph (SE)    
Max Wind Speed 12 mph    
Max Gust Speed 20 mph    
Visibility 9 miles    
Events Rain    
T = Trace of Precipitation, MM = Missing Value Source: NWS Daily Summary

Daily Weather History Graph

Daily Weather History Graph

Search for Another Location

Airport or City:

Astronomy

Sep. 01, 2019 Rise Set
Actual Time 6:27 AM EDT 7:40 PM EDT
Civil Twilight 5:57 AM EDT 8:10 PM EDT
Nautical Twilight 5:21 AM EDT 8:45 PM EDT
Astronomical Twilight 4:43 AM EDT 9:23 PM EDT
Moon 8:58 AM EDT (9/1) 9:21 PM EDT (9/1)
Length of Visible Light 14h 12m
Length of Day
13h 13m
Waxing Crescent, 8% of the Moon is Illuminated
Sep 1
Waxing Crescent
Sep 5
First Quarter
Sep 14
Full
Sep 21
Last Quarter
Sep 28
New

Hourly Weather History & Observations

Time (EDT) Temp. Dew Point Humidity Pressure Visibility Wind Dir Wind Speed Gust Speed Precip Events Conditions
12:56 AM 53.1 °F 51.1 °F 93% 30.32 in 10.0 mi ENE 5.8 mph - N/A   Clear
1:56 AM 53.1 °F 51.1 °F 93% 30.32 in 10.0 mi East 4.6 mph - N/A   Clear
2:56 AM 54.0 °F 51.1 °F 90% 30.32 in 10.0 mi ESE 3.5 mph - N/A   Clear
3:56 AM 55.0 °F 51.1 °F 86% 30.32 in 10.0 mi East 4.6 mph - N/A   Clear
4:56 AM 55.0 °F 51.1 °F 86% 30.31 in 10.0 mi East 3.5 mph - N/A   Clear
5:56 AM 54.0 °F 51.1 °F 90% 30.31 in 10.0 mi East 4.6 mph - N/A   Clear
6:56 AM 54.0 °F 52.0 °F 93% 30.34 in 10.0 mi Calm Calm - N/A   Clear
7:56 AM 55.9 °F 54.0 °F 93% 30.34 in 10.0 mi Calm Calm - N/A   Clear
8:56 AM 64.0 °F 53.1 °F 67% 30.32 in 10.0 mi SE 6.9 mph - N/A   Clear
9:56 AM 66.0 °F 53.1 °F 63% 30.32 in 10.0 mi SE 6.9 mph - N/A   Clear
10:56 AM 66.9 °F 53.1 °F 61% 30.31 in 10.0 mi Variable 4.6 mph - N/A   Clear
11:56 AM 68.0 °F 52.0 °F 56% 30.30 in 10.0 mi South 5.8 mph - N/A   Clear
12:56 PM 68.0 °F 52.0 °F 56% 30.28 in 10.0 mi Variable 4.6 mph - N/A   Scattered Clouds
1:56 PM 70.0 °F 52.0 °F 53% 30.25 in 10.0 mi South 6.9 mph - N/A   Scattered Clouds
2:56 PM 70.0 °F 53.1 °F 55% 30.22 in 10.0 mi SSE 6.9 mph - N/A   Clear
3:56 PM 70.0 °F 55.9 °F 61% 30.20 in 10.0 mi SE 4.6 mph - N/A   Mostly Cloudy
4:56 PM 70.0 °F 57.0 °F 63% 30.19 in 10.0 mi Calm Calm - N/A   Overcast
5:56 PM 63.0 °F 57.9 °F 84% 30.19 in 5.0 mi ESE 3.5 mph - 0.01 in Rain Light Rain
6:56 PM 63.0 °F 59.0 °F 87% 30.16 in 10.0 mi ESE 4.6 mph - 0.00 in   Overcast
7:56 PM 64.0 °F 57.9 °F 80% 30.13 in 10.0 mi SSE 5.8 mph - 0.00 in   Mostly Cloudy
8:56 PM 64.9 °F 57.0 °F 75% 30.11 in 10.0 mi Variable 5.8 mph - N/A   Overcast
9:56 PM 64.9 °F 57.9 °F 78% 30.10 in 8.0 mi South 5.8 mph - 0.01 in Rain Light Rain
10:56 PM 64.0 °F 59.0 °F 84% 30.09 in 9.0 mi South 6.9 mph - 0.05 in Rain Light Rain
11:56 PM 63.0 °F 60.1 °F 90% 30.07 in 3.0 mi South 8.1 mph - 0.10 in Rain Rain